Year,Month,Day,Hour,Minute,Value (Times are PST for temperature in C)
2008,07,27,00,00,17.20
2008,07,27,00,01,17.20
2008,07,27,00,02,17.30
2008,07,27,00,03,17.30
2008,07,27,00,04,17.30
2008,07,27,00,05,17.30
2008,07,27,00,06,17.30
2008,07,27,00,07,17.30
2008,07,27,00,08,17.40
2008,07,27,00,09,17.40
2008,07,27,00,10,17.50
2008,07,27,00,11,17.50
2008,07,27,00,12,17.50
2008,07,27,00,13,17.60
2008,07,27,00,14,17.70
2008,07,27,00,15,17.70
2008,07,27,00,16,17.70
2008,07,27,00,17,17.70
2008,07,27,00,18,17.70
2008,07,27,00,19,17.70
2008,07,27,00,20,17.70
2008,07,27,00,21,17.70
2008,07,27,00,22,17.60
2008,07,27,00,23,17.60
2008,07,27,00,24,17.60
2008,07,27,00,25,17.60
2008,07,27,00,26,17.60
2008,07,27,00,27,17.60
2008,07,27,00,28,17.60
2008,07,27,00,29,17.70
2008,07,27,00,30,17.70
2008,07,27,00,31,17.70
2008,07,27,00,32,17.70
2008,07,27,00,33,17.70
2008,07,27,00,34,17.70
2008,07,27,00,35,17.70
2008,07,27,00,36,17.70
2008,07,27,00,37,17.70
2008,07,27,00,38,17.70
2008,07,27,00,39,17.60
2008,07,27,00,40,17.60
2008,07,27,00,41,17.60
2008,07,27,00,42,17.60
2008,07,27,00,43,17.60
2008,07,27,00,44,17.60
2008,07,27,00,45,17.60
2008,07,27,00,46,17.60
2008,07,27,00,47,17.60
2008,07,27,00,48,17.60
2008,07,27,00,49,17.60
2008,07,27,00,50,17.50
2008,07,27,00,51,17.50
2008,07,27,00,52,17.50
2008,07,27,00,53,17.40
2008,07,27,00,54,17.40
2008,07,27,00,55,17.40
2008,07,27,00,56,17.50
2008,07,27,00,57,17.50
2008,07,27,00,58,17.50
2008,07,27,00,59,17.50
2008,07,27,01,00,17.60
2008,07,27,01,01,17.60
2008,07,27,01,02,17.60
2008,07,27,01,03,17.70
2008,07,27,01,04,17.70
2008,07,27,01,05,17.60
2008,07,27,01,06,17.60
2008,07,27,01,07,17.50
2008,07,27,01,08,17.50
2008,07,27,01,09,17.40
2008,07,27,01,10,17.40
2008,07,27,01,11,17.40
2008,07,27,01,12,17.40
2008,07,27,01,13,17.40
2008,07,27,01,14,17.40
2008,07,27,01,15,17.40
2008,07,27,01,16,17.40
2008,07,27,01,17,17.40
2008,07,27,01,18,17.40
2008,07,27,01,19,17.40
2008,07,27,01,20,17.40
2008,07,27,01,21,17.40
2008,07,27,01,22,17.40
2008,07,27,01,23,17.40
2008,07,27,01,24,17.50
2008,07,27,01,25,17.50
2008,07,27,01,26,17.50
2008,07,27,01,27,17.50
2008,07,27,01,28,17.40
2008,07,27,01,29,17.40
2008,07,27,01,30,17.30
2008,07,27,01,31,17.30
2008,07,27,01,32,17.30
2008,07,27,01,33,17.30
2008,07,27,01,34,17.30
2008,07,27,01,35,17.20
2008,07,27,01,36,17.10
2008,07,27,01,37,17.10
2008,07,27,01,38,17.00
2008,07,27,01,39,17.00
2008,07,27,01,40,17.00
2008,07,27,01,41,17.00
2008,07,27,01,42,16.90
2008,07,27,01,43,16.90
2008,07,27,01,44,16.90
2008,07,27,01,45,16.80
2008,07,27,01,46,16.80
2008,07,27,01,47,16.90
2008,07,27,01,48,16.80
2008,07,27,01,49,16.80
2008,07,27,01,50,16.80
2008,07,27,01,51,16.80
2008,07,27,01,52,16.80
2008,07,27,01,53,16.90
2008,07,27,01,54,16.90
2008,07,27,01,55,16.90
2008,07,27,01,56,16.90
2008,07,27,01,57,17.00
2008,07,27,01,58,17.00
2008,07,27,01,59,17.00
2008,07,27,02,00,17.00
2008,07,27,02,01,17.00
2008,07,27,02,02,17.00
2008,07,27,02,03,17.00
2008,07,27,02,04,17.00
2008,07,27,02,05,16.90
2008,07,27,02,06,17.00
2008,07,27,02,07,17.00
2008,07,27,02,08,16.90
2008,07,27,02,09,16.90
2008,07,27,02,10,16.90
2008,07,27,02,11,16.90
2008,07,27,02,12,16.90
2008,07,27,02,13,16.90
2008,07,27,02,14,16.80
2008,07,27,02,15,16.80
2008,07,27,02,16,16.80
2008,07,27,02,17,16.70
2008,07,27,02,18,16.70
2008,07,27,02,19,16.70
2008,07,27,02,20,16.70
2008,07,27,02,21,16.70
2008,07,27,02,22,16.70
2008,07,27,02,23,16.70
2008,07,27,02,24,16.70
2008,07,27,02,25,16.70
2008,07,27,02,26,16.70
2008,07,27,02,27,16.70
2008,07,27,02,28,16.70
2008,07,27,02,29,16.70
2008,07,27,02,30,16.70
2008,07,27,02,31,16.70
2008,07,27,02,32,16.70
2008,07,27,02,33,16.70
2008,07,27,02,34,16.70
2008,07,27,02,35,16.70
2008,07,27,02,36,16.70
2008,07,27,02,37,16.70
2008,07,27,02,38,16.70
2008,07,27,02,39,16.70
2008,07,27,02,40,16.70
2008,07,27,02,41,16.70
2008,07,27,02,42,16.70
2008,07,27,02,43,16.70
2008,07,27,02,44,16.70
2008,07,27,02,45,16.70
2008,07,27,02,46,16.70
2008,07,27,02,47,16.70
2008,07,27,02,48,16.70
2008,07,27,02,49,16.70
2008,07,27,02,50,16.70
2008,07,27,02,51,16.70
2008,07,27,02,52,16.70
2008,07,27,02,53,16.70
2008,07,27,02,54,16.70
2008,07,27,02,55,16.70
2008,07,27,02,56,16.70
2008,07,27,02,57,16.60
2008,07,27,02,58,16.60
2008,07,27,02,59,16.60
2008,07,27,03,00,16.60
2008,07,27,03,01,16.60
2008,07,27,03,02,16.60
2008,07,27,03,03,16.60
2008,07,27,03,04,16.60
2008,07,27,03,05,16.60
2008,07,27,03,06,16.60
2008,07,27,03,07,16.60
2008,07,27,03,08,16.60
2008,07,27,03,09,16.60
2008,07,27,03,10,16.50
2008,07,27,03,11,16.40
2008,07,27,03,12,16.40
2008,07,27,03,13,16.40
2008,07,27,03,14,16.40
2008,07,27,03,15,16.40
2008,07,27,03,16,16.40
2008,07,27,03,17,16.40
2008,07,27,03,18,16.40
2008,07,27,03,19,16.40
2008,07,27,03,20,16.40
2008,07,27,03,21,16.40
2008,07,27,03,22,16.40
2008,07,27,03,23,16.40
2008,07,27,03,24,16.40
2008,07,27,03,25,16.40
2008,07,27,03,26,16.40
2008,07,27,03,27,16.40
2008,07,27,03,28,16.40
2008,07,27,03,29,16.40
2008,07,27,03,30,16.40
2008,07,27,03,31,16.50
2008,07,27,03,32,16.60
2008,07,27,03,33,16.60
2008,07,27,03,34,16.60
2008,07,27,03,35,16.60
2008,07,27,03,36,16.70
2008,07,27,03,37,16.70
2008,07,27,03,38,16.70
2008,07,27,03,39,16.70
2008,07,27,03,40,16.70
2008,07,27,03,41,16.70
2008,07,27,03,42,16.70
2008,07,27,03,43,16.70
2008,07,27,03,44,16.70
2008,07,27,03,45,16.70
2008,07,27,03,46,16.70
2008,07,27,03,47,16.80
2008,07,27,03,48,16.80
2008,07,27,03,49,16.80
2008,07,27,03,50,16.80
2008,07,27,03,51,16.80
2008,07,27,03,52,16.80
2008,07,27,03,53,16.80
2008,07,27,03,54,16.80
2008,07,27,03,55,16.80
2008,07,27,03,56,16.80
2008,07,27,03,57,16.80
2008,07,27,03,58,16.90
2008,07,27,03,59,16.90
2008,07,27,04,00,16.90
2008,07,27,04,01,16.90
2008,07,27,04,02,16.80
2008,07,27,04,03,16.80
2008,07,27,04,04,16.70
2008,07,27,04,05,16.70
2008,07,27,04,06,16.60
2008,07,27,04,07,16.40
2008,07,27,04,08,16.40
2008,07,27,04,09,16.40
2008,07,27,04,10,16.40
2008,07,27,04,11,16.40
2008,07,27,04,12,16.40
2008,07,27,04,13,16.40
2008,07,27,04,14,16.30
2008,07,27,04,15,16.30
2008,07,27,04,16,16.30
2008,07,27,04,17,16.30
2008,07,27,04,18,16.30
2008,07,27,04,19,16.40
2008,07,27,04,20,16.40
2008,07,27,04,21,16.50
2008,07,27,04,22,16.60
2008,07,27,04,23,16.60
2008,07,27,04,24,16.70
2008,07,27,04,25,16.70
2008,07,27,04,26,16.70
2008,07,27,04,27,16.80
2008,07,27,04,28,16.90
2008,07,27,04,29,16.90
2008,07,27,04,30,17.00
2008,07,27,04,31,17.00
2008,07,27,04,32,17.00
2008,07,27,04,33,17.10
2008,07,27,04,34,17.10
2008,07,27,04,35,17.10
2008,07,27,04,36,17.10
2008,07,27,04,37,17.10
2008,07,27,04,38,17.10
2008,07,27,04,39,17.10
2008,07,27,04,40,17.10
2008,07,27,04,41,17.10
2008,07,27,04,42,17.10
2008,07,27,04,43,17.00
2008,07,27,04,44,17.00
2008,07,27,04,45,17.00
2008,07,27,04,46,17.00
2008,07,27,04,47,16.90
2008,07,27,04,48,16.90
2008,07,27,04,49,16.90
2008,07,27,04,50,16.90
2008,07,27,04,51,16.90
2008,07,27,04,52,16.90
2008,07,27,04,53,17.00
2008,07,27,04,54,17.00
2008,07,27,04,55,17.00
2008,07,27,04,56,17.00
2008,07,27,04,57,17.00
2008,07,27,04,58,17.00
2008,07,27,04,59,17.10
2008,07,27,05,00,17.10
2008,07,27,05,01,17.10
2008,07,27,05,02,17.10
2008,07,27,05,03,17.10
2008,07,27,05,04,17.10
2008,07,27,05,05,17.10
2008,07,27,05,06,17.20
2008,07,27,05,07,17.20
2008,07,27,05,08,17.20
2008,07,27,05,09,17.20
2008,07,27,05,10,17.20
2008,07,27,05,11,17.10
2008,07,27,05,12,17.10
2008,07,27,05,13,17.10
2008,07,27,05,14,17.00
2008,07,27,05,15,16.90
2008,07,27,05,16,16.80
2008,07,27,05,17,16.80
2008,07,27,05,18,16.70
2008,07,27,05,19,16.70
2008,07,27,05,20,16.70
2008,07,27,05,21,16.60
2008,07,27,05,22,16.50
2008,07,27,05,23,16.40
2008,07,27,05,24,16.40
2008,07,27,05,25,16.40
2008,07,27,05,26,16.40
2008,07,27,05,27,16.40
2008,07,27,05,28,16.40
2008,07,27,05,29,16.40
2008,07,27,05,30,16.40
2008,07,27,05,31,16.40
2008,07,27,05,32,16.40
2008,07,27,05,33,16.40
2008,07,27,05,34,16.40
2008,07,27,05,35,16.40
2008,07,27,05,36,16.40
2008,07,27,05,37,16.40
2008,07,27,05,38,16.40
2008,07,27,05,39,16.40
2008,07,27,05,40,16.30
2008,07,27,05,41,16.30
2008,07,27,05,42,16.20
2008,07,27,05,43,16.20
2008,07,27,05,44,16.20
2008,07,27,05,45,16.10
2008,07,27,05,46,16.10
2008,07,27,05,47,16.20
2008,07,27,05,48,16.20
2008,07,27,05,49,16.20
2008,07,27,05,50,16.20
2008,07,27,05,51,16.30
2008,07,27,05,52,16.30
2008,07,27,05,53,16.30
2008,07,27,05,54,16.30
2008,07,27,05,55,16.30
2008,07,27,05,56,16.30
2008,07,27,05,57,16.40
2008,07,27,05,58,16.40
2008,07,27,05,59,16.40
2008,07,27,06,00,16.30
2008,07,27,06,01,16.30
2008,07,27,06,02,16.20
2008,07,27,06,03,16.20
2008,07,27,06,04,16.20
2008,07,27,06,05,16.20
2008,07,27,06,06,16.20
2008,07,27,06,07,16.10
2008,07,27,06,08,16.10
2008,07,27,06,09,16.10
2008,07,27,06,10,16.20
2008,07,27,06,11,16.20
2008,07,27,06,12,16.30
2008,07,27,06,13,16.30
2008,07,27,06,14,16.40
2008,07,27,06,15,16.40
2008,07,27,06,16,16.40
2008,07,27,06,17,16.40
2008,07,27,06,18,16.40
2008,07,27,06,19,16.40
2008,07,27,06,20,16.40
2008,07,27,06,21,16.50
2008,07,27,06,22,16.60
2008,07,27,06,23,16.60
2008,07,27,06,24,16.60
2008,07,27,06,25,16.70
2008,07,27,06,26,16.70
2008,07,27,06,27,16.70
2008,07,27,06,28,16.70
2008,07,27,06,29,16.70
2008,07,27,06,30,16.80
2008,07,27,06,31,16.80
2008,07,27,06,32,16.80
2008,07,27,06,33,16.80
2008,07,27,06,34,16.80
2008,07,27,06,35,16.80
2008,07,27,06,36,16.70
2008,07,27,06,37,16.70
2008,07,27,06,38,16.70
2008,07,27,06,39,16.70
2008,07,27,06,40,16.70
2008,07,27,06,41,16.70
2008,07,27,06,42,16.70
2008,07,27,06,43,16.70
2008,07,27,06,44,16.70
2008,07,27,06,45,16.70
2008,07,27,06,46,16.70
2008,07,27,06,47,16.70
2008,07,27,06,48,16.70
2008,07,27,06,49,16.60
2008,07,27,06,50,16.60
2008,07,27,06,51,16.60
2008,07,27,06,52,16.60
2008,07,27,06,53,16.60
2008,07,27,06,54,16.60
2008,07,27,06,55,16.60
2008,07,27,06,56,16.60
2008,07,27,06,57,16.60
2008,07,27,06,58,16.60
2008,07,27,06,59,16.60
2008,07,27,07,00,16.70
2008,07,27,07,01,16.70
2008,07,27,07,02,16.70
2008,07,27,07,03,16.70
2008,07,27,07,04,16.70
2008,07,27,07,05,16.70
2008,07,27,07,06,16.70
2008,07,27,07,07,16.70
2008,07,27,07,08,16.80
2008,07,27,07,09,16.80
2008,07,27,07,10,16.80
2008,07,27,07,11,16.80
2008,07,27,07,12,16.80
2008,07,27,07,13,16.80
2008,07,27,07,14,16.90
2008,07,27,07,15,16.90
2008,07,27,07,16,17.00
2008,07,27,07,17,17.00
2008,07,27,07,18,17.00
2008,07,27,07,19,16.90
2008,07,27,07,20,16.90
2008,07,27,07,21,17.00
2008,07,27,07,22,17.00
2008,07,27,07,23,17.00
2008,07,27,07,24,17.00
2008,07,27,07,25,17.00
2008,07,27,07,26,17.00
2008,07,27,07,27,17.00
2008,07,27,07,28,17.00
2008,07,27,07,29,17.00
2008,07,27,07,30,17.00
2008,07,27,07,31,17.00
2008,07,27,07,32,17.00
2008,07,27,07,33,17.00
2008,07,27,07,34,17.00
2008,07,27,07,35,17.00
2008,07,27,07,36,17.00
2008,07,27,07,37,17.00
2008,07,27,07,38,17.00
2008,07,27,07,39,17.00
2008,07,27,07,40,17.10
2008,07,27,07,41,17.10
2008,07,27,07,42,17.20
2008,07,27,07,43,17.20
2008,07,27,07,44,17.30
2008,07,27,07,45,17.30
2008,07,27,07,46,17.30
2008,07,27,07,47,17.40
2008,07,27,07,48,17.30
2008,07,27,07,49,17.30
2008,07,27,07,50,17.30
2008,07,27,07,51,17.30
2008,07,27,07,52,17.30
2008,07,27,07,53,17.30
2008,07,27,07,54,17.30
2008,07,27,07,55,17.30
2008,07,27,07,56,17.20
2008,07,27,07,57,17.20
2008,07,27,07,58,17.20
2008,07,27,07,59,17.20
2008,07,27,08,00,17.30
2008,07,27,08,01,17.30
2008,07,27,08,02,17.30
2008,07,27,08,03,17.40
2008,07,27,08,04,17.40
2008,07,27,08,05,17.50
2008,07,27,08,06,17.50
2008,07,27,08,07,17.60
2008,07,27,08,08,17.60
2008,07,27,08,09,17.60
2008,07,27,08,10,17.70
2008,07,27,08,11,17.70
2008,07,27,08,12,17.60
2008,07,27,08,13,17.50
2008,07,27,08,14,17.50
2008,07,27,08,15,17.50
2008,07,27,08,16,17.50
2008,07,27,08,17,17.50
2008,07,27,08,18,17.50
2008,07,27,08,19,17.40
2008,07,27,08,20,17.40
2008,07,27,08,21,17.30
2008,07,27,08,22,17.30
2008,07,27,08,23,17.30
2008,07,27,08,24,17.30
2008,07,27,08,25,17.30
2008,07,27,08,26,17.30
2008,07,27,08,27,17.30
2008,07,27,08,28,17.30
2008,07,27,08,29,17.30
2008,07,27,08,30,17.30
2008,07,27,08,31,17.30
2008,07,27,08,32,17.20
2008,07,27,08,33,17.20
2008,07,27,08,34,17.20
2008,07,27,08,35,17.30
2008,07,27,08,36,17.30
2008,07,27,08,37,17.30
2008,07,27,08,38,17.30
2008,07,27,08,39,17.30
2008,07,27,08,40,17.30
2008,07,27,08,41,17.30
2008,07,27,08,42,17.30
2008,07,27,08,43,17.30
2008,07,27,08,44,17.30
2008,07,27,08,45,17.30
2008,07,27,08,46,17.30
2008,07,27,08,47,17.30
2008,07,27,08,48,17.30
2008,07,27,08,49,17.30
2008,07,27,08,50,17.30
2008,07,27,08,51,17.20
2008,07,27,08,52,17.20
2008,07,27,08,53,17.20
2008,07,27,08,54,17.30
2008,07,27,08,55,17.30
2008,07,27,08,56,17.30
2008,07,27,08,57,17.20
2008,07,27,08,58,17.20
2008,07,27,08,59,17.30
2008,07,27,09,00,17.30
2008,07,27,09,01,17.40
2008,07,27,09,02,17.50
2008,07,27,09,03,17.50
2008,07,27,09,04,17.60
2008,07,27,09,05,17.70
2008,07,27,09,06,17.80
2008,07,27,09,07,17.70
2008,07,27,09,08,17.80
2008,07,27,09,09,17.90
2008,07,27,09,10,17.90
2008,07,27,09,11,17.90
2008,07,27,09,12,17.90
2008,07,27,09,13,17.90
2008,07,27,09,14,17.90
2008,07,27,09,15,17.90
2008,07,27,09,16,18.00
2008,07,27,09,17,18.10
2008,07,27,09,18,18.20
2008,07,27,09,19,18.20
2008,07,27,09,20,18.20
2008,07,27,09,21,18.20
2008,07,27,09,22,18.20
2008,07,27,09,23,18.20
2008,07,27,09,24,18.20
2008,07,27,09,25,18.20
2008,07,27,09,26,18.20
2008,07,27,09,27,18.20
2008,07,27,09,28,18.20
2008,07,27,09,29,18.20
2008,07,27,09,30,18.20
2008,07,27,09,31,18.10
2008,07,27,09,32,18.10
2008,07,27,09,33,18.10
2008,07,27,09,34,18.10
2008,07,27,09,35,17.90
2008,07,27,09,36,17.90
2008,07,27,09,37,17.90
2008,07,27,09,38,17.90
2008,07,27,09,39,17.90
2008,07,27,09,40,17.90
2008,07,27,09,41,17.90
2008,07,27,09,42,17.90
2008,07,27,09,43,17.90
2008,07,27,09,44,17.90
2008,07,27,09,45,17.90
2008,07,27,09,46,17.90
2008,07,27,09,47,17.90
2008,07,27,09,48,17.90
2008,07,27,09,49,17.90
2008,07,27,09,50,17.90
2008,07,27,09,51,17.90
2008,07,27,09,52,17.90
2008,07,27,09,53,17.90
2008,07,27,09,54,17.90
2008,07,27,09,55,17.90
2008,07,27,09,56,17.90
2008,07,27,09,57,17.90
2008,07,27,09,58,17.90
2008,07,27,09,59,17.90
2008,07,27,10,00,17.90
2008,07,27,10,01,17.90
2008,07,27,10,02,17.90
2008,07,27,10,03,17.90
2008,07,27,10,04,17.90
2008,07,27,10,05,17.80
2008,07,27,10,06,17.90
2008,07,27,10,07,17.90
2008,07,27,10,08,17.90
2008,07,27,10,09,17.90
2008,07,27,10,10,17.90
2008,07,27,10,11,17.80
2008,07,27,10,12,17.70
2008,07,27,10,13,17.70
2008,07,27,10,14,17.70
2008,07,27,10,15,17.70
2008,07,27,10,16,17.70
2008,07,27,10,17,17.80
2008,07,27,10,18,17.80
2008,07,27,10,19,17.80
2008,07,27,10,20,17.90
2008,07,27,10,21,17.90
2008,07,27,10,22,17.90
2008,07,27,10,23,17.90
2008,07,27,10,24,17.90
2008,07,27,10,25,17.90
2008,07,27,10,26,17.90
2008,07,27,10,27,17.90
2008,07,27,10,28,18.10
2008,07,27,10,29,18.10
2008,07,27,10,30,18.20
2008,07,27,10,31,18.20
2008,07,27,10,32,18.20
2008,07,27,10,33,18.20
2008,07,27,10,34,18.20
2008,07,27,10,35,18.30
2008,07,27,10,36,18.40
2008,07,27,10,37,18.40
2008,07,27,10,38,18.50
2008,07,27,10,39,18.50
2008,07,27,10,40,18.50
2008,07,27,10,41,18.60
2008,07,27,10,42,18.60
2008,07,27,10,43,18.60
2008,07,27,10,44,18.70
2008,07,27,10,45,18.70
2008,07,27,10,46,18.70
2008,07,27,10,47,18.70
2008,07,27,10,48,18.70
2008,07,27,10,49,18.60
2008,07,27,10,50,18.70
2008,07,27,10,51,18.70
2008,07,27,10,52,18.70
2008,07,27,10,53,18.80
2008,07,27,10,54,18.80
2008,07,27,10,55,18.70
2008,07,27,10,56,18.70
2008,07,27,10,57,18.70
2008,07,27,10,58,18.70
2008,07,27,10,59,18.70
2008,07,27,11,00,18.70
2008,07,27,11,01,18.70
2008,07,27,11,02,18.70
2008,07,27,11,03,18.60
2008,07,27,11,04,18.50
2008,07,27,11,05,18.40
2008,07,27,11,06,18.30
2008,07,27,11,07,18.30
2008,07,27,11,08,18.20
2008,07,27,11,09,18.20
2008,07,27,11,10,18.10
2008,07,27,11,11,18.00
2008,07,27,11,12,17.90
2008,07,27,11,13,17.90
2008,07,27,11,14,17.90
2008,07,27,11,15,17.90
2008,07,27,11,16,17.90
2008,07,27,11,17,18.00
2008,07,27,11,18,18.10
2008,07,27,11,19,18.10
2008,07,27,11,20,18.10
2008,07,27,11,21,18.10
2008,07,27,11,22,18.10
2008,07,27,11,23,18.00
2008,07,27,11,24,17.90
2008,07,27,11,25,17.90
2008,07,27,11,26,17.90
2008,07,27,11,27,17.90
2008,07,27,11,28,17.90
2008,07,27,11,29,18.00
2008,07,27,11,30,18.10
2008,07,27,11,31,18.20
2008,07,27,11,32,18.20
2008,07,27,11,33,18.20
2008,07,27,11,34,18.20
2008,07,27,11,35,18.20
2008,07,27,11,36,18.20
2008,07,27,11,37,18.30
2008,07,27,11,38,18.30
2008,07,27,11,39,18.30
2008,07,27,11,40,18.30
2008,07,27,11,41,18.40
2008,07,27,11,42,18.40
2008,07,27,11,43,18.40
2008,07,27,11,44,18.50
2008,07,27,11,45,18.50
2008,07,27,11,46,18.60
2008,07,27,11,47,18.70
2008,07,27,11,48,18.80
2008,07,27,11,49,18.80
2008,07,27,11,50,18.90
2008,07,27,11,51,18.80
2008,07,27,11,52,18.90
2008,07,27,11,53,18.90
2008,07,27,11,54,18.90
2008,07,27,11,55,19.00
2008,07,27,11,56,19.10
2008,07,27,11,57,19.30
2008,07,27,11,58,19.50
2008,07,27,11,59,19.70
2008,07,27,12,00,19.70
2008,07,27,12,01,19.60
2008,07,27,12,02,19.50
2008,07,27,12,03,19.40
2008,07,27,12,04,19.40
2008,07,27,12,05,19.40
2008,07,27,12,06,19.40
2008,07,27,12,07,19.40
2008,07,27,12,08,19.50
2008,07,27,12,09,19.60
2008,07,27,12,10,19.70
2008,07,27,12,11,19.80
2008,07,27,12,12,19.70
2008,07,27,12,13,19.60
2008,07,27,12,14,19.50
2008,07,27,12,15,19.50
2008,07,27,12,16,19.50
2008,07,27,12,17,19.60
2008,07,27,12,18,19.80
2008,07,27,12,19,19.80
2008,07,27,12,20,19.90
2008,07,27,12,21,20.10
2008,07,27,12,22,20.30
2008,07,27,12,23,20.40
2008,07,27,12,24,20.50
2008,07,27,12,25,20.50
2008,07,27,12,26,20.60
2008,07,27,12,27,20.80
2008,07,27,12,28,20.80
2008,07,27,12,29,20.80
2008,07,27,12,30,20.70
2008,07,27,12,31,20.70
2008,07,27,12,32,20.60
2008,07,27,12,33,20.60
2008,07,27,12,34,20.50
2008,07,27,12,35,20.50
2008,07,27,12,36,20.50
2008,07,27,12,37,20.60
2008,07,27,12,38,20.50
2008,07,27,12,39,20.50
2008,07,27,12,40,20.50
2008,07,27,12,41,20.50
2008,07,27,12,42,20.50
2008,07,27,12,43,20.50
2008,07,27,12,44,20.70
2008,07,27,12,45,20.70
2008,07,27,12,46,20.80
2008,07,27,12,47,20.90
2008,07,27,12,48,20.90
2008,07,27,12,49,20.90
2008,07,27,12,50,20.80
2008,07,27,12,51,20.80
2008,07,27,12,52,20.70
2008,07,27,12,53,20.50
2008,07,27,12,54,20.40
2008,07,27,12,55,20.20
2008,07,27,12,56,20.20
2008,07,27,12,57,20.10
2008,07,27,12,58,20.00
2008,07,27,12,59,19.90
2008,07,27,13,00,19.90
2008,07,27,13,01,19.90
2008,07,27,13,02,19.80
2008,07,27,13,03,19.70
2008,07,27,13,04,19.70
2008,07,27,13,05,19.60
2008,07,27,13,06,19.60
2008,07,27,13,07,19.60
2008,07,27,13,08,19.50
2008,07,27,13,09,19.60
2008,07,27,13,10,19.50
2008,07,27,13,11,19.50
2008,07,27,13,12,19.50
2008,07,27,13,13,19.60
2008,07,27,13,14,19.60
2008,07,27,13,15,19.70
2008,07,27,13,16,19.80
2008,07,27,13,17,19.80
2008,07,27,13,18,19.80
2008,07,27,13,19,19.90
2008,07,27,13,20,20.00
2008,07,27,13,21,20.10
2008,07,27,13,22,20.20
2008,07,27,13,23,20.30
2008,07,27,13,24,20.50
2008,07,27,13,25,20.50
2008,07,27,13,26,20.60
2008,07,27,13,27,20.70
2008,07,27,13,28,20.70
2008,07,27,13,29,20.70
2008,07,27,13,30,20.70
2008,07,27,13,31,20.70
2008,07,27,13,32,20.70
2008,07,27,13,33,20.70
2008,07,27,13,34,20.70
2008,07,27,13,35,20.80
2008,07,27,13,36,20.70
2008,07,27,13,37,20.60
2008,07,27,13,38,20.50
2008,07,27,13,39,20.30
2008,07,27,13,40,20.20
2008,07,27,13,41,20.20
2008,07,27,13,42,20.00
2008,07,27,13,43,19.90
2008,07,27,13,44,19.80
2008,07,27,13,45,19.80
2008,07,27,13,46,19.90
2008,07,27,13,47,20.00
2008,07,27,13,48,20.10
2008,07,27,13,49,20.00
2008,07,27,13,50,20.00
2008,07,27,13,51,20.10
2008,07,27,13,52,20.20
2008,07,27,13,53,20.30
2008,07,27,13,54,20.30
2008,07,27,13,55,20.30
2008,07,27,13,56,20.30
2008,07,27,13,57,20.20
2008,07,27,13,58,20.20
2008,07,27,13,59,20.20
2008,07,27,14,00,20.30
2008,07,27,14,01,20.40
2008,07,27,14,02,20.50
2008,07,27,14,03,20.70
2008,07,27,14,04,20.80
2008,07,27,14,05,20.80
2008,07,27,14,06,20.80
2008,07,27,14,07,20.70
2008,07,27,14,08,20.80
2008,07,27,14,09,20.90
2008,07,27,14,10,21.00
2008,07,27,14,11,21.10
2008,07,27,14,12,21.10
2008,07,27,14,13,21.20
2008,07,27,14,14,21.30
2008,07,27,14,15,21.40
2008,07,27,14,16,21.50
2008,07,27,14,17,21.60
2008,07,27,14,18,21.70
2008,07,27,14,19,21.70
2008,07,27,14,20,21.70
2008,07,27,14,21,21.50
2008,07,27,14,22,21.30
2008,07,27,14,23,21.30
2008,07,27,14,24,21.10
2008,07,27,14,25,21.10
2008,07,27,14,26,21.00
2008,07,27,14,27,20.90
2008,07,27,14,28,20.80
2008,07,27,14,29,20.80
2008,07,27,14,30,20.80
2008,07,27,14,31,20.80
2008,07,27,14,32,20.80
2008,07,27,14,33,20.90
2008,07,27,14,34,20.90
2008,07,27,14,35,20.90
2008,07,27,14,36,20.90
2008,07,27,14,37,21.00
2008,07,27,14,38,21.10
2008,07,27,14,39,21.20
2008,07,27,14,40,21.30
2008,07,27,14,41,21.30
2008,07,27,14,42,21.30
2008,07,27,14,43,21.30
2008,07,27,14,44,21.30
2008,07,27,14,45,21.30
2008,07,27,14,46,21.30
2008,07,27,14,47,21.30
2008,07,27,14,48,21.30
2008,07,27,14,49,21.30
2008,07,27,14,50,21.30
2008,07,27,14,51,21.20
2008,07,27,14,52,21.20
2008,07,27,14,53,21.30
2008,07,27,14,54,21.10
2008,07,27,14,55,21.00
2008,07,27,14,56,21.00
2008,07,27,14,57,20.90
2008,07,27,14,58,20.90
2008,07,27,14,59,20.80
2008,07,27,15,00,20.80
2008,07,27,15,01,20.80
2008,07,27,15,02,20.90
2008,07,27,15,03,20.80
2008,07,27,15,04,20.80
2008,07,27,15,05,20.90
2008,07,27,15,06,20.80
2008,07,27,15,07,20.80
2008,07,27,15,08,20.70
2008,07,27,15,09,20.70
2008,07,27,15,10,20.70
2008,07,27,15,11,20.80
2008,07,27,15,12,21.00
2008,07,27,15,13,21.30
2008,07,27,15,14,21.60
2008,07,27,15,15,21.80
2008,07,27,15,16,21.90
2008,07,27,15,17,21.90
2008,07,27,15,18,21.90
2008,07,27,15,19,21.90
2008,07,27,15,20,21.90
2008,07,27,15,21,21.80
2008,07,27,15,22,21.80
2008,07,27,15,23,21.90
2008,07,27,15,24,21.90
2008,07,27,15,25,21.90
2008,07,27,15,26,21.80
2008,07,27,15,27,21.70
2008,07,27,15,28,21.60
2008,07,27,15,29,21.60
2008,07,27,15,30,21.60
2008,07,27,15,31,21.60
2008,07,27,15,32,21.40
2008,07,27,15,33,21.20
2008,07,27,15,34,21.00
2008,07,27,15,35,21.00
2008,07,27,15,36,21.10
2008,07,27,15,37,21.10
2008,07,27,15,38,21.20
2008,07,27,15,39,21.20
2008,07,27,15,40,21.20
2008,07,27,15,41,21.30
2008,07,27,15,42,21.30
2008,07,27,15,43,21.40
2008,07,27,15,44,21.40
2008,07,27,15,45,21.30
2008,07,27,15,46,21.10
2008,07,27,15,47,21.00
2008,07,27,15,48,20.90
2008,07,27,15,49,20.80
2008,07,27,15,50,20.70
2008,07,27,15,51,20.60
2008,07,27,15,52,20.60
2008,07,27,15,53,20.50
2008,07,27,15,54,20.40
2008,07,27,15,55,20.40
2008,07,27,15,56,20.50
2008,07,27,15,57,20.60
2008,07,27,15,58,20.80
2008,07,27,15,59,20.90
2008,07,27,16,00,21.10
2008,07,27,16,01,21.20
2008,07,27,16,02,21.20
2008,07,27,16,03,21.20
2008,07,27,16,04,21.10
2008,07,27,16,05,21.00
2008,07,27,16,06,20.90
2008,07,27,16,07,20.90
2008,07,27,16,08,20.90
2008,07,27,16,09,21.00
2008,07,27,16,10,21.10
2008,07,27,16,11,21.30
2008,07,27,16,12,21.30
2008,07,27,16,13,21.30
2008,07,27,16,14,21.20
2008,07,27,16,15,21.10
2008,07,27,16,16,20.90
2008,07,27,16,17,20.70
2008,07,27,16,18,20.60
2008,07,27,16,19,20.60
2008,07,27,16,20,20.60
2008,07,27,16,21,20.70
2008,07,27,16,22,20.80
2008,07,27,16,23,20.70
2008,07,27,16,24,20.70
2008,07,27,16,25,20.80
2008,07,27,16,26,20.80
2008,07,27,16,27,20.70
2008,07,27,16,28,20.60
2008,07,27,16,29,20.60
2008,07,27,16,30,20.70
2008,07,27,16,31,20.70
2008,07,27,16,32,20.80
2008,07,27,16,33,20.80
2008,07,27,16,34,20.70
2008,07,27,16,35,20.70
2008,07,27,16,36,20.70
2008,07,27,16,37,20.70
2008,07,27,16,38,20.80
2008,07,27,16,39,20.70
2008,07,27,16,40,20.70
2008,07,27,16,41,20.70
2008,07,27,16,42,20.70
2008,07,27,16,43,20.70
2008,07,27,16,44,20.80
2008,07,27,16,45,20.80
2008,07,27,16,46,20.80
2008,07,27,16,47,20.90
2008,07,27,16,48,21.00
2008,07,27,16,49,21.00
2008,07,27,16,50,21.10
2008,07,27,16,51,21.20
2008,07,27,16,52,21.30
2008,07,27,16,53,21.30
2008,07,27,16,54,21.30
2008,07,27,16,55,21.40
2008,07,27,16,56,21.40
2008,07,27,16,57,21.50
2008,07,27,16,58,21.60
2008,07,27,16,59,21.80
2008,07,27,17,00,22.00
2008,07,27,17,01,22.00
2008,07,27,17,02,22.10
2008,07,27,17,03,22.10
2008,07,27,17,04,22.00
2008,07,27,17,05,21.90
2008,07,27,17,06,21.60
2008,07,27,17,07,21.50
2008,07,27,17,08,21.40
2008,07,27,17,09,21.30
2008,07,27,17,10,21.40
2008,07,27,17,11,21.40
2008,07,27,17,12,21.30
2008,07,27,17,13,21.40
2008,07,27,17,14,21.60
2008,07,27,17,15,21.70
2008,07,27,17,16,21.90
2008,07,27,17,17,22.10
2008,07,27,17,18,22.20
2008,07,27,17,19,22.30